[[{"header":{"parameterUnit":"m.s-1","parameterCategory":1,"la1":30.2991,"la2":30.254,"lo1":-89.0895,"lo2":-89.0444,"dy":0.0017,"dx":0.0017,"nx":28,"ny":28,"refTime":"2024-08-09T09:00:00:Z","depth":0,"parameterNumber":2,"parameterNumberName":"U-component_of_WINDS"},"data":[0,0,0,0,0,0,0,0,0,0,0,0,0,0,0,0,0,0,0,0,0,0,0,0,0,0,0,0,0,0,0,0,0,0,0,0,0,0,0,0,0,0,0,0,0,0,0,0,0,0,0,0,0,0,0,0,0,0,2.5213,2.5214,0,2.5301,2.5302,2.5303,2.5252,2.525,2.5247,2.5245,2.5339,2.5343,2.5348,0,0,0,0,0,0,0,0,0,0,0,0,0,2.5003,2.5007,2.5213,2.5214,2.5215,2.5301,2.5302,2.5303,2.5253,2.525,2.5246,2.5244,2.5337,2.5343,2.5348,0,0,0,0,0,0,0,0,0,0,0,0,0,2.5093,2.5008,2.5213,2.52,2.52,2.5301,2.5302,2.5304,2.5253,2.5249,2.5246,2.5242,2.5335,2.5342,2.5349,2.5469,0,0,2.5371,2.5374,0,0,0,0,0,0,0,0,2.5088,2.5101,2.5201,2.5201,2.5201,2.5262,2.5262,2.5359,2.5254,2.5233,2.5245,2.524,2.5316,2.5325,2.535,2.5473,2.5477,2.5372,2.5376,2.5379,2.5381,0,0,0,0,0,0,0,2.5082,2.5096,2.5248,2.5202,2.5203,2.5191,2.5199,2.528,2.5295,2.5235,2.5231,2.5242,2.5316,2.5343,2.5351,2.5478,2.5372,2.5378,2.5383,2.5385,2.5701,2.5705,0,0,0,0,0,0,2.5076,2.5092,2.5245,2.5251,2.5134,2.5197,2.5207,2.5246,2.5294,2.5297,2.5245,2.5239,2.5332,2.5343,2.5355,2.5495,2.5379,2.5386,2.539,2.5697,2.5702,2.5706,0,0,0,0,0,0,2.5072,2.509,2.5242,2.517,2.5188,2.5205,2.5249,2.525,2.5277,2.5301,2.5304,2.527,2.533,2.5344,2.544,2.5498,2.5389,2.5396,2.5692,2.5698,2.5704,2.5778,0,0,0,0,0,0,2.5066,2.5089,2.5134,2.5172,2.5192,2.5325,2.5253,2.5254,2.5289,2.5282,2.5326,2.5329,2.5328,2.5429,2.5447,2.5506,2.5402,2.5687,2.5695,2.5702,2.5771,2.5786,2.5799,0,0,0,0,0,2.5058,2.5153,2.5137,2.5156,2.5249,2.5328,2.5341,2.5336,2.5294,2.5339,2.5355,2.5328,2.5489,2.5439,2.5459,2.5521,2.5683,2.5693,2.5701,2.5764,2.5783,2.5799,0,0,0,0,0,0,2.5124,2.5158,2.514,2.525,2.5286,2.532,2.5377,2.5357,2.5407,2.5399,2.5392,2.5402,2.5501,2.5521,2.5465,2.5637,2.5579,2.5593,2.5621,2.5639,2.5653,2.5645,2.5408,0,0,0,0,0,2.5151,2.5212,2.5238,2.5332,2.5351,2.5361,2.5396,2.5389,2.5427,2.5443,2.5465,2.5504,2.5563,2.5602,2.5658,2.5774,2.5781,2.5826,2.584,2.5852,2.5863,2.5923,2.5942,2.5736,2.5736,2.5736,0,0,2.5208,2.5234,2.5273,2.5346,2.5374,2.5436,2.5375,2.5445,2.5491,2.5454,2.5544,2.5562,2.5605,2.571,2.5757,2.5729,2.5922,2.5863,2.5872,2.5877,2.5934,2.5954,2.5971,2.5742,2.5741,2.574,0,0,2.5343,2.537,2.5449,2.5477,2.5519,2.5525,2.5544,2.558,2.559,2.568,2.5652,2.5708,2.581,2.5841,2.587,2.6014,2.599,2.6033,2.6107,2.6166,2.6182,2.6196,2.6246,2.6264,2.6044,2.6044,2.6045,0,2.5409,2.5501,2.5493,2.5564,2.5596,2.5563,2.5644,2.5672,2.5731,2.5754,2.5721,2.5847,2.5874,2.5984,2.6019,2.6044,2.6065,2.6027,2.618,2.6195,2.6208,2.6255,2.6274,2.6049,2.6049,2.6048,2.6048,0,2.5579,2.5644,2.5703,2.5758,2.5797,2.5873,2.5876,2.5917,2.5906,2.5915,2.6006,2.6036,2.6097,2.6123,2.6114,2.6232,2.6212,2.6181,2.6122,2.6232,2.6276,2.6294,2.6056,2.6054,2.6053,2.6052,0,0,2.5759,2.5806,2.5828,2.5851,2.5893,2.5944,2.6017,2.6074,2.6108,2.615,2.621,2.6296,2.6266,2.6299,2.6293,2.6345,2.6454,2.6306,2.6307,2.6331,2.6583,2.6605,2.6626,2.6439,2.6442,2.6445,2.6578,0,2.5895,2.6021,2.6015,2.6134,2.6192,2.6161,2.6224,2.6257,2.6267,2.6319,2.633,2.639,2.6347,2.6366,2.6416,2.643,2.6504,2.6421,2.6495,2.6497,2.6483,2.665,2.6674,2.6799,2.6596,2.6599,2.6601,0,2.6071,2.6115,2.6239,2.627,2.6294,2.6351,2.6402,2.6452,2.6488,2.6491,2.6527,2.6512,2.6586,2.6526,2.6627,2.657,2.66,2.6612,2.6616,2.6622,2.6555,2.6658,2.6839,2.6857,2.6628,2.6626,2.6624,0,2.6186,2.6278,2.6362,2.6384,2.6423,2.6463,2.6482,2.6514,2.6548,2.6592,2.6614,2.6667,2.6696,2.6738,2.6738,2.6695,2.6839,2.678,2.6844,2.6844,2.6875,2.6873,2.7061,2.6897,2.6897,2.6896,2.6896,0,2.6338,2.6415,2.6414,2.6467,2.6551,2.6543,2.6627,2.6641,2.667,2.6724,2.6702,2.6753,2.675,2.6803,2.6803,2.6886,2.69,2.6904,2.6903,2.6905,2.6904,2.6924,2.6914,2.6901,2.69,2.6899,2.6898,0,2.6482,2.6485,2.6575,2.6603,2.6612,2.6673,2.6698,2.6747,2.6754,2.6823,2.6839,2.685,2.691,2.6914,2.6985,2.6985,2.7084,2.7075,2.7071,2.7069,2.7131,2.7124,2.7337,2.7364,2.7185,2.7186,2.7188,0,2.6578,2.6635,2.6669,2.6702,2.6722,2.6778,2.6811,2.6805,2.6841,2.6885,2.6929,2.6987,2.7032,2.713,2.7145,2.7198,2.7188,2.7259,2.7196,2.7196,2.7187,2.7183,2.7187,2.7271,2.7273,2.7275,2.7276,0,2.6747,2.6744,2.6793,2.6841,2.6881,2.692,2.6955,2.6985,2.6983,2.7024,2.7084,2.7119,2.7189,2.7246,2.7297,2.7317,2.7296,2.7296,2.7313,2.7315,2.7309,2.7311,2.7102,2.7291,2.7289,2.7288,2.7287,2.7287,2.6868,2.6916,2.6946,2.7001,2.7026,2.7059,2.7106,2.7118,2.7167,2.7222,2.7216,2.7282,2.7315,2.7382,2.7405,2.7457,2.7432,2.7458,2.7464,2.747,2.7475,2.7302,2.7466,2.7466,2.7465,2.7465,2.7465,0,2.7033,2.7051,2.71,2.7149,2.7192,2.7167,2.7204,2.7241,2.7299,2.7331,2.7375,2.7443,2.7498,2.7516,2.7569,2.7607,2.7598,2.7621,2.7617,2.7621,2.7495,2.7474,2.7626,2.7626,2.7626,2.7626,2.7626,2.7626,2.7125,2.7204,2.7206,2.7297,2.7315,2.7377,2.7401,2.7431,2.7456,2.7532,2.7576,2.7587,2.7613,2.7667,2.7716,2.772,2.774,2.7766,2.7766,2.7647,2.7631,2.7615,2.7595,2.777,2.7771,2.7887,2.7888,2.7889]},{"header":{"parameterUnit":"m.s-1","parameterCategory":1,"la1":30.2991,"la2":30.254,"lo1":-89.0895,"lo2":-89.0444,"dy":0.0017,"dx":0.0017,"nx":28,"ny":28,"refTime":"2024-08-09T09:00:00:Z","depth":0,"parameterNumber":3,"parameterNumberName":"V-component_of_WINDS"},"data":[0,0,0,0,0,0,0,0,0,0,0,0,0,0,0,0,0,0,0,0,0,0,0,0,0,0,0,0,0,0,0,0,0,0,0,0,0,0,0,0,0,0,0,0,0,0,0,0,0,0,0,0,0,0,0,0,0,0,1.7931,1.7931,0,1.7927,1.7927,1.7927,1.7876,1.7874,1.7873,1.7872,1.7868,1.7869,1.787,0,0,0,0,0,0,0,0,0,0,0,0,0,1.7894,1.7895,1.7931,1.7931,1.7931,1.7927,1.7927,1.7927,1.7876,1.7874,1.7873,1.7871,1.7868,1.7869,1.787,0,0,0,0,0,0,0,0,0,0,0,0,0,1.7902,1.7896,1.7931,1.7905,1.7903,1.7927,1.7927,1.7927,1.7876,1.7874,1.7872,1.7871,1.7867,1.7869,1.787,1.792,0,0,1.7876,1.7876,0,0,0,0,0,0,0,0,1.7902,1.7904,1.7909,1.7907,1.7904,1.79,1.7913,1.7925,1.7877,1.7886,1.7872,1.787,1.788,1.7881,1.7884,1.7919,1.7919,1.7876,1.7877,1.7877,1.7878,0,0,0,0,0,0,0,1.7902,1.7904,1.793,1.7909,1.7906,1.7893,1.7892,1.7915,1.7894,1.7885,1.7882,1.7882,1.7879,1.7883,1.7884,1.7919,1.7876,1.7877,1.7878,1.7879,1.7993,1.7995,0,0,0,0,0,0,1.7905,1.7904,1.793,1.793,1.7898,1.7896,1.7895,1.7903,1.7894,1.7891,1.7884,1.7879,1.7881,1.7882,1.7883,1.794,1.7877,1.7879,1.788,1.7991,1.7994,1.7996,0,0,0,0,0,0,1.7904,1.7907,1.793,1.7916,1.7917,1.7898,1.7909,1.7904,1.7908,1.7892,1.7889,1.7892,1.7879,1.7881,1.7911,1.7939,1.788,1.7881,1.7989,1.7992,1.7995,1.8053,0,0,0,0,0,0,1.7903,1.7908,1.7926,1.7916,1.7918,1.7958,1.791,1.7906,1.7911,1.7906,1.7899,1.7896,1.7878,1.7909,1.7912,1.794,1.7882,1.7986,1.799,1.7994,1.8049,1.8058,1.8066,0,0,0,0,0,1.7902,1.7943,1.7928,1.7931,1.7941,1.7959,1.7961,1.7939,1.7914,1.7932,1.7922,1.7896,1.7935,1.7912,1.7916,1.7945,1.7985,1.7989,1.7994,1.8045,1.8056,1.8066,0,0,0,0,0,0,1.7957,1.7941,1.7924,1.7963,1.7963,1.7951,1.7973,1.7952,1.7959,1.7954,1.7927,1.7925,1.7959,1.7955,1.7929,1.7991,1.7955,1.7961,1.7993,1.8003,1.8012,1.8012,1.7884,0,0,0,0,0,1.7974,1.799,1.7975,1.8011,1.8012,1.7993,1.8,1.7983,1.7982,1.7982,1.7974,1.7974,1.7985,1.7994,1.8004,1.8048,1.8045,1.8069,1.8078,1.8085,1.809,1.8112,1.8122,1.8011,1.8011,1.8011,0,0,1.8009,1.8002,1.8014,1.8022,1.802,1.8037,1.7993,1.8013,1.8025,1.7985,1.8012,1.8006,1.8004,1.8041,1.8056,1.8038,1.812,1.8091,1.8097,1.8098,1.8118,1.8128,1.8138,1.8014,1.8014,1.8013,0,0,1.8081,1.8077,1.8107,1.8105,1.8102,1.8089,1.8096,1.8087,1.8081,1.8108,1.8078,1.8092,1.8114,1.8113,1.8116,1.8187,1.8163,1.8191,1.8235,1.8257,1.8266,1.8273,1.8298,1.8308,1.8196,1.8196,1.8196,0,1.8124,1.8149,1.8124,1.8146,1.815,1.8114,1.8143,1.8143,1.8144,1.8147,1.8127,1.8152,1.8149,1.8184,1.8201,1.8205,1.8212,1.8192,1.8267,1.8274,1.8281,1.8304,1.8314,1.8199,1.8199,1.8199,1.8198,0,1.8202,1.8219,1.8243,1.8244,1.8251,1.8277,1.8256,1.8266,1.8248,1.8237,1.8265,1.8259,1.8267,1.8274,1.8257,1.8307,1.8296,1.8271,1.8235,1.8295,1.8317,1.8325,1.8204,1.8203,1.8202,1.8201,0,0,1.831,1.8296,1.8305,1.8305,1.8299,1.8312,1.8335,1.8342,1.8351,1.8353,1.8372,1.839,1.8367,1.837,1.8353,1.8372,1.8428,1.8345,1.8345,1.8361,1.8482,1.85,1.8511,1.8412,1.8414,1.8415,1.8482,0,1.8378,1.8417,1.8396,1.8438,1.8453,1.8418,1.8438,1.8437,1.8427,1.8438,1.8427,1.8441,1.841,1.8411,1.8428,1.8418,1.8452,1.8413,1.8429,1.843,1.8431,1.8522,1.8542,1.8606,1.849,1.8492,1.8493,0,1.8464,1.8469,1.8513,1.8502,1.8508,1.8527,1.8531,1.8543,1.854,1.8531,1.8534,1.8512,1.8534,1.8498,1.8528,1.8501,1.8507,1.8503,1.8504,1.8505,1.8465,1.8526,1.8625,1.8635,1.8506,1.8505,1.8504,0,1.8538,1.8555,1.8583,1.8584,1.8573,1.8587,1.8583,1.8578,1.8584,1.8588,1.8591,1.8598,1.8602,1.8607,1.8588,1.8563,1.862,1.8582,1.8613,1.8614,1.8627,1.8627,1.8729,1.8631,1.8631,1.8631,1.863,0,1.8617,1.8645,1.8616,1.8633,1.8663,1.8637,1.8668,1.866,1.8656,1.8671,1.8641,1.8656,1.8629,1.8641,1.8626,1.8652,1.8654,1.8648,1.8644,1.8651,1.8652,1.8654,1.8649,1.8633,1.8633,1.8632,1.8632,0,1.8704,1.8686,1.8714,1.8701,1.8698,1.8721,1.871,1.8725,1.8713,1.8732,1.8735,1.8716,1.8729,1.8709,1.872,1.8709,1.8746,1.8735,1.8747,1.8744,1.8776,1.8773,1.8884,1.8897,1.8791,1.8792,1.8793,0,1.8756,1.8777,1.8765,1.8773,1.8771,1.8784,1.8789,1.8765,1.8771,1.8769,1.8785,1.8795,1.8801,1.8823,1.881,1.8818,1.8806,1.8845,1.8807,1.8814,1.8807,1.8806,1.8808,1.8852,1.8854,1.8855,1.8856,0,1.885,1.8839,1.8848,1.8854,1.8861,1.8864,1.8865,1.8873,1.8847,1.8856,1.8868,1.8873,1.8883,1.8894,1.8898,1.8894,1.8871,1.8867,1.8875,1.8882,1.8888,1.8885,1.8768,1.8865,1.8864,1.8863,1.8863,1.8862,1.8921,1.8937,1.8931,1.8942,1.894,1.8941,1.8955,1.8944,1.8953,1.896,1.8944,1.896,1.8956,1.8959,1.8958,1.897,1.8953,1.8964,1.8967,1.897,1.8975,1.8886,1.8971,1.897,1.897,1.897,1.897,0,1.9013,1.9007,1.9017,1.9019,1.9027,1.9004,1.9003,1.9012,1.9026,1.9024,1.9031,1.9044,1.9054,1.9042,1.9049,1.9061,1.905,1.9063,1.9062,1.9062,1.899,1.8982,1.9072,1.9072,1.9072,1.9072,1.9072,1.9072,1.9061,1.9087,1.9076,1.9101,1.9095,1.911,1.9111,1.9113,1.9111,1.9127,1.9135,1.9126,1.912,1.9127,1.9134,1.913,1.9134,1.9152,1.9144,1.9077,1.9067,1.9057,1.905,1.9153,1.9153,1.9215,1.9216,1.9216]}]]